FENGYUN 1C DEB

Satellite information

Favourite Embed

Satellite Type and Status

DEBRISIN ORBIT

Key statistics

Satellite FENGYUN 1C DEB at a glance.

Uptime

9715

Days in orbit

Revolutions

≈ 14.4

Per day

Orbit

SSO

Sun Synchronous Orbit

Inclination

98.9

Latest

Satellite identification and parameters

Extended collection of information and parameters for FENGYUN 1C DEB.

Object identification

Identified? True

Debris? True

Object name: FENGYUN 1C DEB

International designator: 1999-025EPD

Object number (NORAD): 37928

Object ID (CCSDS): 37928

Country: PEOPLES REPUBLIC OF CHINA (PRC)

Current information (Y/N): Y

RCS size: SMALL

Orbital parameters

Period: 100.204 minutes

Inclination: 98.9156 deg

SMA: 7146.351 km

Apoapsis: 820.717 km

Periapsis: 715.715 km

RAAN: 214.2722 deg

Eccentricy: 0.0073466

Argument of periapsis: 52.9241 deg

Mean anomaly: 307.8631 deg

Mean motion: 14.37064476 rev/day

Mean motion (dot): 0.00003419 rev/day2

B* drag term: 0.0011316154 1/REarth

Two-line elements (TLE)

Creation date: Dec. 6, 2025, 6 a.m.

Reference frame: TEME

Reference center: EARTH

Epoch: Dec. 5, 2025, 10:06 p.m. UTC

TLE line 0: 0 FENGYUN 1C DEB

TLE line 1: 1 37928U 99025EPD 25339.92147731 .00003419 00000-0 11316-2 0 9991

TLE line 2: 2 37928 98.9156 214.2722 0073466 52.9241 307.8631 14.37064476810940

Live tracking on map

Real-time ground track for satellite FENGYUN 1C DEB.

In-orbit conjunctions

A list of the most updated potential collisions computed for object FENGYUN 1C DEB.

Target Orbit TCA Probability of collision Miss distance Type
DMSP 5D-2 F14 DEB SSO 2025-09-09 23:36:55 0.0003140716 223.0 (m) DEBRIS
FENGYUN 1C DEB SSO 2024-11-13 11:59:44 0.0009882699 125.0 (m) DEBRIS
CZ-6A DEB LEO 2024-11-12 19:52:23 0.0001819832 358.0 (m) DEBRIS
COSMOS 374 DEB LEO 2024-11-09 15:33:51 0.0007446192 283.0 (m) DEBRIS
ADEOS SSO 2024-09-26 18:35:24 0.000108348 827.0 (m) PAYLOAD

Associated space launch

Chinese polar orbiting meteorological satellite

FENGYUN 1C DEB was lifted into orbit during the mission ‘Long March 4B | Feng Yun 1C’, on board a Long March 4B space rocket.

The launch took place on May 10, 1999, 1:33 a.m. from Launch Complex 7.

For more information about the launch, click the button.

Launch to space Long March 4B | Feng Yun 1C
Long March 4B | Feng Yun 1C

Agency: N/A

Status: Launch Successful

Launch date: May 10, 1999, 1:33 a.m. UTC

Rocket: Long March 4B

Launch pad: Launch Complex 7

Location: Taiyuan Satellite Launch Center, People's Republic of China

...

Latest news about this satellite

There are no fresh news available about this satellite. Check back as we update our databases every day.


Newsletter sign-up

Weekly statistics, charts and insights to help you stay on top of the space industry.